sat.trackr.live / text

‹ back to catalog

CENTAURI-6

NORAD 59451 · 2024-066K

PAYLOAD ACTIVE UNKNOWN

§ Identity

Operator
Country
AUS
Launch date
2024-04-07
Launch site
AFETR
Launch vehicle
Mass (kg)
RCS (m²)

External: N2YO · Heavens-Above · Gunter

§ Orbital elements

Epoch: 2026-09-22T21:33:45.431136Z

Period
95.58 min
Inclination
45.6056°
Eccentricity
0.0002034
Mean motion
15.06553446 rev/d
Perigee alt
545.3 km
Apogee alt
548.1 km
Semi-major
6,924.9 km
B*
2.2612e-4
RAAN
103.8725°
Arg perigee
242.3713°
Mean anomaly
117.6965°
Rev number
13,485

§ Raw data

CENTAURI-61 59451U 24066K   26265.89844249  .00003151  00000+0  22612-3 0  99962 59451  45.6056 103.8725 0002034 242.3713 117.6965 15.06553446134854

JSON: /api/v1/satellites/59451 · /tle

For live sub-satellite position, see the globe view (requires WebGL).

§ Visibility from observer

Set your observer location to see the next 7 days of passes ≥ 10°. The values pass through the URL so the page stays shareable.

No JS? Fill the form by hand. The geolocation button needs JavaScript.

§ Radio — SatNOGS DB

ModeDescriptionDownlinkUplink
FSK Mode U - Transmitter 400.180 MHz

1 transmitter · refreshed weekly from db.satnogs.org